User: anonymous   Login
Location: Bismarck
(46.7731°N, 100.8200°W)
Time: 00:26:22
(UTC-05:00)
Language:

Cosmos 1125 Rocket - Orbit

View from above orbital plane
View from above orbital plane
View from above satellite
View from above satellite

Ground track
Ground track

The orbit data is extracted from the following two-line orbital elements,

1 11511U 79078B   18174.48678259 +.00000062 +00000-0 +29933-4 0  9998
2 11511 074.0366 352.8266 0015174 148.8539 211.3517 14.36813868031940
Epoch (UTC): 23 June 2018 11:40:58
Eccentricity: 0.0015174
inclination: 74.0366°
perigee height: 758 km
apogee height: 780 km
right ascension of ascending node: 352.8266°
argument of perigee: 148.8539°
revolutions per day: 14.36813868
mean anomaly at epoch: 211.3517°
orbit number at epoch: 3194

The dashed part of the orbit path shows where the satellite is in the earth's shadow,  

DLR